Погода в Серафимовиче

Погода в Серафимовиче : погода сейчас, прогноз погоды и архив. Всё, что Вы хотите узнать о погоде в Серафимовиче!

Поиск расширенной информации на нашем сайте:

Другие новости

Новости СМИ2

Главная страница сайта

Новости сайта

03.07.2017

Напоминаем, что на нашем специализированном сайте Метеоцентр.Азия вы можете получить высокодетализированные автоматические прогнозы погоды по пунктам России, СНГ и мира в авиационном формате (включающие направление и скорость ветра, видимость, явления погоды, количество и форму облачности, нижнюю и верхнюю границу облачности).

Рекомендуем: Работаем с овощами и салатами. Для ускорения работы используйте яйцерезку, это удобно.

Погода в Серафимовиче - сегодня

Время (UTC), дата Ветер
(°,м/с) 
Видим.   Явления Облачность Т
(°С)
Тd
(°С)
f(%) Тe
(°С)
Pmin
(гПа)
dP
(гПа)
Po
(мм)
O2
(г/м3)
Тmin Tmax R s Состояние
почвы
06 16.08.18 010 (С) 20000 м    ясно 
+24 +14.1 54 +31  1017.4  0.3  752  276           
09 16.08.18 070 (В) 20000 м    ясно 
+31.6 +8.9 25 +32  1016.5  -0.5  752  270           
12 16.08.18 150 (ЮВ) 20000 м    ясно 
+32.5 +7.1 21 +33  1015.4  -1  751  269           
15 16.08.18 360 (С) 20000 м    ясно 
+30.5 +10.3 29 +32  1014.6  -1  750  270    +32.8       
18 16.08.18 130 (ЮВ) 20000 м    ясно 
+25.6 +9.4 36 +26  1015.3  0.4  751  275           
21 16.08.18 150 (ЮВ) 20000 м    ясно 
+24.4 +8.2 36 +24  1015.1  -0.2  751  276           
00 17.08.18 100 (В) 20000 м    ясно 
+20.6 +11.6 56 +24  1015.1  -0.2  750  279           
03 17.08.18 230 (ЮЗ) 20000 м    ясно 
+19.7 +11.6 60 +24  1015.3  0.2  751  280  +18.7        сухая 
06 17.08.18 тихо ()   20000 м    ясно 
+24 +14.7 56 +32  1015.5  0.4  751  275  +18.2         
09 17.08.18 330 (СЗ) 20000 м    ясно 
+31.1 +9 25 +31  1014.2  -1  750  270           
12 17.08.18 350 (С) 20000 м    6/4 300 м кучево-дожд., верхняя 
[Cb calv|Ci fib]
+31.7 +11.3 29 +35  1013.4  -0.7  750  269           
15 17.08.18 360 (С) 20000 м  {гроза, ливн. осадки}  8/3 300 м кучево-дожд., средняя, верхняя 
[Cb calv|Ac trans|Ci fib]
+27.9 +12 37 +32  1013.7  0.1  750  272    +32.1     
18 17.08.18 020 (С) 20000 м  {гроза, ливн. осадки}  8/0 средняя, верхняя 
[Ac trans|Ci fib]
+23.8 +14.8 57 +32  1015.2  1.3  751  275           
21 17.08.18 010 (С) 20000 м    8/0 средняя, верхняя 
[Ac trans|Ci fib]
+20 +14.7 72 +28  1015.6  0.2  751  279           
00 18.08.18 060 (СВ) 20000 м    9/0 средняя 
[Ac trans]
+18.4 +13 71 +24  1016  0.3  751  281           
03 18.08.18 040 (СВ) 20000 м    8/0 средняя 
[Ac trans]
+16.6 +12.5 77 +22  1017.2  1.1  752  283  +16.1        сухая 
06 18.08.18 040 (СВ) 20000 м    ясно 
+20.9 +11.4 55 +24  1017.7  0.7  752  279           
09 18.08.18 070 (В) 4-10{12}  20000 м    4/4 600 м 
[Cu hum]
+24.3 +9.3 39 +25  1017.5  0.1  752  277           
12 18.08.18 050 (СВ) 4{10}  20000 м    ясно 
+25.9 +4.3 25 +26  1017.3  0.1  752  276           
15 18.08.18 020 (С) 6-10{11}  20000 м    ясно 
+23.3 +5 30 +23  1017.6  0.2  752  279    +25.9       
18 18.08.18 070 (В) 2{10}  20000 м    ясно 
+18.6 +4.5 39 +20  1019.3  1.4  753  284           
21 18.08.18 060 (СВ) 20000 м    ясно 
+15.7 +4.7 48 +17  1019.9  0.5  754  286           
00 19.08.18 060 (СВ) 20000 м    ясно 
+13.1 +5.5 60 +14  1020.8  0.7  754  289           
06 19.08.18 030 (СВ) 20000 м    ясно 
+19.1 +8.5 50 +21  1021.8  0.6  755  283           
09 19.08.18 020 (С) 20000 м    ясно 
+22.9 +4 29 +23  1020.8  -0.8  755  280           
Время (UTC), дата Ветер
(°,м/с) 
Видим.   Явления Облачность Т
(°С)
Тd
(°С)
f(%) Тe
(°С)
Pmin
(гПа)
dP
(гПа)
Po
(мм)
O2
(г/м3)
Тmin Tmax R s Состояние
почвы

Для получения пояснительной информации подведите курсор к названию столбца.

ПОГОДА в Серафимовиче - архив

Всё, что Вы хотите узнать о погоде в Серафимовиче - удобно и подробно!

Выберите нужную дату (начиная с 1 января 2015* года) и нажмите кнопку "Найти".
Будут отображены архивные сводки погоды по пункту Серафимович, начиная с указанной даты.


Отображать данные в формате CSV (для использования в таблицах Excel)


Внимание! Наш архив погоды предназначен исключительно для личного некоммерческого использования в познавательных целях. Если Вам необходимы официальные справки о состоянии погоды (для производственных, юридических, коммерческих и т.п. целей), обращайтесь в органы Росгидромета.

*Примечание: данная дата относится к архиву по метеостанциям СССР (Россия, СНГ, Балтия).
Архив по метеостанциям Зарубежной Европы и Азии (кроме Китая) хранится 10 дней, по другим регионам земного шара (Китай, Африка, Америка, Австралия, Океания) - 1 день.

Серафимович - район местоположения метеостанции


Название, широта, долгота, высота метеостанции:
Серафимович 49.6°ш. 42.8°д. 200 м над ур. моря [Российская Федерация]

Дополнительная информация

В oтличие oт бoльшинства пoгoдных сайтoв мы публикуем пoдрoбную метеoинфoрмацию в детальнoм прoфессиoнальнoм фoрмате.

Характеристики температуры и влажнoсти вoздуха измеряются на высoте 2 м в тени вдали oт зданий и деревьев.
Скoрoсть ветра измеряется на высoте 10 м (на урoвне рoста челoвека скoрoсть ветра ниже в 1.5-2 раза). Если метеoстанция нахoдится в гoрoде или в лесу, тo скoрoсть ветра занижена на 2-4 м/с пo сравнению с oткрытым местoм. Скoрoсть ветра над акватoриями крупных рек и oзёр, а также на вершинах хoлмoв на 2-5 м/с выше, чем в oбычных услoвиях.
Атмoсфернoе давление в разных тoчках местнoсти мoжет значительнo oтличаться oт давления на метеoстанции, в зависимoсти oт услoвий рельефа (при пoдъёме на 10 м давление пoнижается примернo на 1 мм рт.ст.).